[[{"header":{"parameterUnit":"m.s-1","parameterCategory":1,"la1":30.2991,"la2":30.254,"lo1":-89.0895,"lo2":-89.0444,"dy":0.0017,"dx":0.0017,"nx":28,"ny":28,"refTime":"2025-07-16T03:00:00:Z","depth":0,"parameterNumber":2,"parameterNumberName":"U-component_of_WINDS"},"data":[0,0,0,0,0,0,0,0,0,0,0,0,0,0,0,0,0,0,0,0,0,0,0,0,0,0,0,0,0,0,0,0,0,0,0,0,0,0,0,0,0,0,0,0,0,0,0,0,0,0,0,0,0,0,0,0,0,0,-0.6931,-0.693,0,-0.6837,-0.6836,-0.6835,-0.6801,-0.6802,-0.6802,-0.6803,-0.6701,-0.6698,-0.6695,0,0,0,0,0,0,0,0,0,0,0,0,0,-0.7079,-0.7077,-0.6931,-0.693,-0.6929,-0.6837,-0.6836,-0.6834,-0.6801,-0.6802,-0.6802,-0.6803,-0.6702,-0.6698,-0.6695,0,0,0,0,0,0,0,0,0,0,0,0,0,-0.7003,-0.7076,-0.6931,-0.6902,-0.6898,-0.6837,-0.6836,-0.6834,-0.6801,-0.6802,-0.6802,-0.6803,-0.6703,-0.6699,-0.6694,-0.6655,0,0,-0.668,-0.6678,0,0,0,0,0,0,0,0,-0.7007,-0.6998,-0.6907,-0.6903,-0.6899,-0.6832,-0.6851,-0.6774,-0.6801,-0.6838,-0.6803,-0.6803,-0.6744,-0.6736,-0.6717,-0.665,-0.6646,-0.668,-0.6677,-0.6675,-0.6674,0,0,0,0,0,0,0,-0.7013,-0.7001,-0.6894,-0.6906,-0.6901,-0.6892,-0.6881,-0.6836,-0.6789,-0.6835,-0.6832,-0.6822,-0.6742,-0.6721,-0.6714,-0.6644,-0.668,-0.6676,-0.6673,-0.6671,-0.6541,-0.6541,0,0,0,0,0,0,-0.7024,-0.7006,-0.6897,-0.6891,-0.6956,-0.6889,-0.6877,-0.6853,-0.6789,-0.678,-0.6821,-0.682,-0.6729,-0.6719,-0.671,-0.666,-0.6675,-0.6671,-0.6668,-0.6542,-0.6541,-0.654,0,0,0,0,0,0,-0.7027,-0.7014,-0.69,-0.6948,-0.6933,-0.6885,-0.6858,-0.6851,-0.683,-0.6779,-0.677,-0.6809,-0.6729,-0.6717,-0.6669,-0.6656,-0.6669,-0.6665,-0.6543,-0.6542,-0.6541,-0.656,0,0,0,0,0,0,-0.7031,-0.7016,-0.7001,-0.6948,-0.693,-0.6862,-0.6857,-0.6848,-0.6823,-0.6821,-0.6765,-0.6757,-0.6728,-0.6676,-0.6665,-0.665,-0.6661,-0.6544,-0.6542,-0.6541,-0.656,-0.656,-0.656,0,0,0,0,0,-0.7037,-0.7009,-0.7,-0.6987,-0.6911,-0.6862,-0.6851,-0.6821,-0.6822,-0.6806,-0.6774,-0.6758,-0.666,-0.6672,-0.6659,-0.6642,-0.6544,-0.6543,-0.6541,-0.6561,-0.656,-0.656,0,0,0,0,0,0,-0.7059,-0.7001,-0.6991,-0.6945,-0.6909,-0.6856,-0.6835,-0.6821,-0.6782,-0.6781,-0.6744,-0.6731,-0.6687,-0.666,-0.6674,-0.6601,-0.6601,-0.6597,-0.6621,-0.662,-0.6619,-0.6626,-0.6657,0,0,0,0,0,-0.706,-0.7026,-0.6976,-0.694,-0.6923,-0.6883,-0.686,-0.684,-0.68,-0.6783,-0.6747,-0.6708,-0.6668,-0.6642,-0.6603,-0.6557,-0.6544,-0.6539,-0.6539,-0.6539,-0.6535,-0.6509,-0.6506,-0.6535,-0.6535,-0.6535,0,0,-0.7059,-0.7023,-0.7003,-0.6944,-0.6914,-0.6878,-0.687,-0.6832,-0.6805,-0.6777,-0.6731,-0.6703,-0.6656,-0.661,-0.6588,-0.6586,-0.6525,-0.6537,-0.6537,-0.6533,-0.6507,-0.6505,-0.6502,-0.6534,-0.6534,-0.6534,0,0,-0.7039,-0.7009,-0.6976,-0.6946,-0.6901,-0.6874,-0.6867,-0.6816,-0.6797,-0.6751,-0.6729,-0.6696,-0.6628,-0.6596,-0.6571,-0.6542,-0.6526,-0.653,-0.6527,-0.6502,-0.65,-0.6497,-0.6487,-0.6483,-0.6526,-0.6527,-0.6527,0,-0.7043,-0.699,-0.696,-0.6925,-0.69,-0.6875,-0.6841,-0.6813,-0.6756,-0.6739,-0.6739,-0.6654,-0.6621,-0.6567,-0.656,-0.6541,-0.653,-0.6535,-0.6503,-0.65,-0.6497,-0.6487,-0.6483,-0.6527,-0.6527,-0.6527,-0.6527,0,-0.6997,-0.6961,-0.694,-0.6888,-0.6861,-0.6826,-0.679,-0.6766,-0.6749,-0.6722,-0.6675,-0.6635,-0.6587,-0.6573,-0.6555,-0.6517,-0.6517,-0.651,-0.6509,-0.6496,-0.6485,-0.6481,-0.6528,-0.6528,-0.6528,-0.6528,0,0,-0.6987,-0.6922,-0.6914,-0.6891,-0.684,-0.681,-0.6775,-0.673,-0.671,-0.6672,-0.6641,-0.6585,-0.6579,-0.6551,-0.6529,-0.6507,-0.6487,-0.6503,-0.6501,-0.6501,-0.6442,-0.6447,-0.6443,-0.6477,-0.6476,-0.6475,-0.6446,0,-0.6961,-0.6898,-0.6871,-0.6819,-0.6786,-0.6763,-0.6732,-0.6696,-0.6671,-0.6638,-0.6609,-0.657,-0.6565,-0.6548,-0.6526,-0.6494,-0.6474,-0.6496,-0.6446,-0.6445,-0.6458,-0.6437,-0.6442,-0.6417,-0.6442,-0.6441,-0.644,0,-0.6921,-0.6885,-0.6831,-0.6785,-0.677,-0.6743,-0.67,-0.6669,-0.6629,-0.6612,-0.6581,-0.6561,-0.6522,-0.6525,-0.6471,-0.6486,-0.6464,-0.6446,-0.6444,-0.6437,-0.6441,-0.643,-0.6408,-0.6404,-0.6433,-0.6434,-0.6434,0,-0.6919,-0.6857,-0.6817,-0.6798,-0.6743,-0.6725,-0.6701,-0.6661,-0.6637,-0.6599,-0.6583,-0.6541,-0.6517,-0.6485,-0.6454,-0.6459,-0.6403,-0.6402,-0.6387,-0.6387,-0.6375,-0.6376,-0.6348,-0.6362,-0.6362,-0.6362,-0.6362,0,-0.6892,-0.6859,-0.6816,-0.6791,-0.6754,-0.6724,-0.6688,-0.6662,-0.6627,-0.6597,-0.6574,-0.6545,-0.6506,-0.6472,-0.6448,-0.6407,-0.6396,-0.6381,-0.6374,-0.6382,-0.6384,-0.6367,-0.6368,-0.6361,-0.6361,-0.6362,-0.6362,0,-0.6883,-0.6852,-0.6807,-0.676,-0.6748,-0.6723,-0.6682,-0.6657,-0.6631,-0.6593,-0.6582,-0.6541,-0.65,-0.6467,-0.6412,-0.6396,-0.6353,-0.6346,-0.6367,-0.6364,-0.635,-0.6351,-0.6309,-0.6302,-0.6322,-0.6321,-0.6321,0,-0.6867,-0.6842,-0.6793,-0.6772,-0.6749,-0.6714,-0.669,-0.6659,-0.6634,-0.6587,-0.6567,-0.6526,-0.649,-0.6426,-0.6391,-0.635,-0.6341,-0.633,-0.6335,-0.6344,-0.6341,-0.6343,-0.634,-0.6329,-0.6329,-0.6329,-0.6329,0,-0.6842,-0.6829,-0.6795,-0.6756,-0.6728,-0.6695,-0.6662,-0.6646,-0.6608,-0.6581,-0.6541,-0.6514,-0.646,-0.6418,-0.6374,-0.6348,-0.6332,-0.6328,-0.6322,-0.6329,-0.6343,-0.6335,-0.6366,-0.6328,-0.6328,-0.6328,-0.6328,-0.6328,-0.6829,-0.6806,-0.6769,-0.6732,-0.6704,-0.6674,-0.6648,-0.6621,-0.6586,-0.6541,-0.6525,-0.6483,-0.6444,-0.6383,-0.6357,-0.6324,-0.6322,-0.6313,-0.6311,-0.6309,-0.631,-0.6349,-0.6315,-0.6315,-0.6315,-0.6315,-0.6315,0,-0.6803,-0.6778,-0.6745,-0.67,-0.6671,-0.6661,-0.6624,-0.66,-0.6564,-0.653,-0.6497,-0.645,-0.641,-0.6373,-0.6331,-0.6311,-0.6303,-0.6301,-0.6302,-0.6296,-0.6314,-0.6324,-0.6309,-0.6309,-0.6309,-0.6309,-0.6309,-0.6309,-0.6786,-0.6747,-0.6729,-0.6676,-0.6651,-0.6611,-0.6591,-0.6563,-0.6536,-0.6485,-0.6453,-0.643,-0.6394,-0.635,-0.6313,-0.6303,-0.6288,-0.6288,-0.6276,-0.6294,-0.6295,-0.6296,-0.6304,-0.6286,-0.6286,-0.6261,-0.6261,-0.6261]},{"header":{"parameterUnit":"m.s-1","parameterCategory":1,"la1":30.2991,"la2":30.254,"lo1":-89.0895,"lo2":-89.0444,"dy":0.0017,"dx":0.0017,"nx":28,"ny":28,"refTime":"2025-07-16T03:00:00:Z","depth":0,"parameterNumber":3,"parameterNumberName":"V-component_of_WINDS"},"data":[0,0,0,0,0,0,0,0,0,0,0,0,0,0,0,0,0,0,0,0,0,0,0,0,0,0,0,0,0,0,0,0,0,0,0,0,0,0,0,0,0,0,0,0,0,0,0,0,0,0,0,0,0,0,0,0,0,0,5.4919,5.4922,0,5.519,5.5193,5.5196,5.5245,5.5243,5.5241,5.5238,5.5504,5.5513,5.5522,0,0,0,0,0,0,0,0,0,0,0,0,0,5.443,5.4438,5.4919,5.4922,5.4925,5.519,5.5193,5.5197,5.5245,5.5243,5.524,5.5237,5.5501,5.5512,5.5522,0,0,0,0,0,0,0,0,0,0,0,0,0,5.4665,5.4441,5.4918,5.4982,5.499,5.5189,5.5194,5.5198,5.5246,5.5243,5.5239,5.5236,5.5497,5.551,5.5524,5.5675,0,0,5.5566,5.5572,0,0,0,0,0,0,0,0,5.4652,5.4683,5.4969,5.4978,5.4987,5.5181,5.5118,5.5357,5.5247,5.5148,5.5238,5.5235,5.5398,5.542,5.5477,5.5687,5.5698,5.5567,5.5575,5.5581,5.5585,0,0,0,0,0,0,0,5.4635,5.4672,5.5026,5.4973,5.4984,5.4992,5.5022,5.5164,5.5288,5.5157,5.5161,5.5193,5.5402,5.5464,5.5484,5.5702,5.5567,5.5579,5.5587,5.5593,5.6046,5.605,0,0,0,0,0,0,5.4609,5.4658,5.5017,5.5034,5.4808,5.5004,5.5037,5.5122,5.5287,5.5309,5.5196,5.5194,5.5442,5.5468,5.5493,5.568,5.5581,5.5594,5.5602,5.6043,5.6047,5.6051,0,0,0,0,0,0,5.4599,5.4641,5.5006,5.4847,5.4894,5.5016,5.511,5.5129,5.5191,5.5316,5.5337,5.5237,5.5441,5.5474,5.563,5.569,5.56,5.5612,5.6038,5.6044,5.6049,5.6054,0,0,0,0,0,0,5.4584,5.4637,5.4699,5.4848,5.4903,5.5142,5.5114,5.5137,5.5216,5.5217,5.5361,5.5381,5.5441,5.5609,5.5643,5.5707,5.5623,5.6033,5.6041,5.6048,5.6049,5.6059,5.6068,0,0,0,0,0,5.4567,5.4687,5.4701,5.4745,5.4983,5.5145,5.5176,5.5246,5.5221,5.5281,5.5362,5.5376,5.5678,5.5625,5.5664,5.5732,5.603,5.6039,5.6047,5.6044,5.6057,5.6068,0,0,0,0,0,0,5.4536,5.4707,5.4726,5.4898,5.5007,5.5153,5.5232,5.5257,5.5372,5.5368,5.5445,5.5477,5.5628,5.5696,5.5633,5.5885,5.5851,5.5868,5.5836,5.5849,5.5858,5.5838,5.5635,0,0,0,0,0,5.4551,5.4672,5.4813,5.4951,5.5006,5.511,5.5183,5.5228,5.5342,5.5387,5.5479,5.5585,5.5704,5.578,5.5896,5.6059,5.6089,5.6125,5.6134,5.6141,5.6154,5.6243,5.626,5.608,5.608,5.608,0,0,5.4579,5.4688,5.4759,5.4948,5.5038,5.5158,5.5148,5.5276,5.5364,5.5405,5.5559,5.5629,5.5753,5.5912,5.5987,5.5973,5.6211,5.6152,5.6157,5.6167,5.6254,5.6271,5.6286,5.6086,5.6085,5.6084,0,0,5.4694,5.4789,5.4915,5.5006,5.5143,5.5211,5.5241,5.5384,5.5433,5.559,5.5622,5.5726,5.593,5.6016,5.6087,5.6233,5.625,5.6268,5.6317,5.6403,5.6417,5.643,5.648,5.6498,5.6281,5.6281,5.6281,0,5.4711,5.4898,5.4975,5.5102,5.5183,5.5229,5.5354,5.5437,5.5603,5.5656,5.5639,5.5895,5.5982,5.6161,5.6197,5.6253,5.6287,5.6252,5.641,5.6423,5.6436,5.6485,5.6504,5.6282,5.6282,5.6282,5.6282,0,5.4912,5.504,5.5124,5.5288,5.5378,5.5504,5.5595,5.5677,5.5713,5.5781,5.5938,5.6044,5.6182,5.6227,5.6263,5.6411,5.6399,5.6395,5.6362,5.6454,5.6501,5.652,5.6284,5.6284,5.6283,5.6283,0,0,5.5014,5.522,5.5249,5.5324,5.5478,5.5577,5.5702,5.5842,5.5909,5.6021,5.6126,5.6297,5.6295,5.6375,5.642,5.6495,5.6602,5.6482,5.6486,5.65,5.677,5.6771,5.6792,5.6615,5.6619,5.6622,5.6759,0,5.5146,5.5377,5.5449,5.564,5.5758,5.5803,5.5912,5.6016,5.6083,5.619,5.6261,5.6381,5.637,5.6419,5.6495,5.6573,5.6657,5.6564,5.6709,5.6714,5.6677,5.6817,5.682,5.6944,5.6778,5.6781,5.6784,0,5.5331,5.5451,5.5655,5.5794,5.5846,5.5943,5.6076,5.6178,5.6296,5.6339,5.6429,5.6468,5.6596,5.6557,5.6733,5.6668,5.6731,5.6778,5.6784,5.68,5.6754,5.6835,5.6986,5.7004,5.6814,5.6811,5.6809,0,5.5383,5.5595,5.5745,5.5807,5.5973,5.604,5.6112,5.6227,5.6305,5.6419,5.647,5.6596,5.6665,5.6759,5.6829,5.6795,5.6998,5.6965,5.7035,5.7033,5.7075,5.7071,5.7237,5.7117,5.7117,5.7116,5.7116,0,5.5522,5.5645,5.5771,5.5862,5.6,5.608,5.6212,5.6285,5.6387,5.649,5.6535,5.663,5.6718,5.6824,5.6879,5.7015,5.7045,5.7081,5.7094,5.7077,5.7072,5.7119,5.7112,5.7122,5.712,5.7119,5.7119,0,5.5604,5.5694,5.586,5.6004,5.6043,5.6138,5.626,5.6348,5.6417,5.6547,5.6582,5.6689,5.6815,5.6895,5.7055,5.7092,5.7241,5.7251,5.7203,5.7209,5.7273,5.7266,5.7474,5.7505,5.7365,5.7366,5.7367,0,5.5687,5.5783,5.5939,5.6013,5.6087,5.6206,5.6287,5.6368,5.645,5.6591,5.6662,5.6792,5.6901,5.71,5.7189,5.7311,5.7324,5.7388,5.7342,5.7322,5.7323,5.7317,5.7326,5.7395,5.7397,5.7398,5.7398,0,5.5823,5.5863,5.5981,5.6114,5.6211,5.6319,5.6426,5.6483,5.6582,5.6671,5.6803,5.6888,5.7053,5.718,5.731,5.7379,5.7404,5.7412,5.7435,5.7418,5.7386,5.7403,5.7223,5.7407,5.7406,5.7406,5.7405,5.7405,5.5907,5.5994,5.6118,5.6247,5.6337,5.6437,5.6527,5.6608,5.6722,5.6865,5.6905,5.7042,5.7155,5.7333,5.7404,5.751,5.7501,5.7533,5.7542,5.7548,5.7549,5.737,5.7533,5.7533,5.7533,5.7533,5.7533,0,5.6045,5.6128,5.6246,5.6397,5.6497,5.6517,5.6636,5.6717,5.684,5.6945,5.7052,5.7203,5.7327,5.7426,5.7552,5.7618,5.7632,5.7648,5.7643,5.7659,5.755,5.7518,5.7634,5.7634,5.7634,5.7634,5.7634,5.7634,5.6129,5.6277,5.6331,5.6523,5.6603,5.6743,5.6809,5.6899,5.6984,5.7151,5.7257,5.7322,5.7423,5.7558,5.7671,5.7696,5.774,5.7754,5.7781,5.7677,5.7666,5.7656,5.7626,5.7763,5.7763,5.7881,5.7882,5.7883]}]]